KB3YCK-2 Weather Reports


time (UTC)temp
C
wind
direction
speed
KPH
gust
KPH
rain 1hr
cm
rain 24hr
cm
rain mn
cm
humidity
%
barometer
mb
20260504110503 3 9 0.0 1.6 0.00 0.00 0.00 88 1015.0
20260504100503 4 51 0.0 1.6 0.00 0.00 0.00 86 1015.3
20260504081005 4 9 0.0 4.8 0.00 0.00 0.00 83 1015.4
20260504080502 4 9 0.0 6.4 0.00 0.00 0.00 83 1015.3
20260504050510 6 51 0.0 4.8 0.00 0.00 0.00 75 1015.4
20260504050010 6 250 1.6 4.8 0.00 0.00 0.00 75 1015.3
20260504045507 6 265 0.0 4.8 0.00 0.00 0.00 75 1015.4
20260504045009 6 250 1.6 4.8 0.00 0.00 0.00 75 1015.4
20260504041002 6 265 0.0 4.8 0.00 0.00 0.00 75 1015.0
20260504040504 6 265 0.0 4.8 0.00 0.00 0.00 75 1015.0
20260504040003 6 325 1.6 4.8 0.00 0.00 0.00 75 1015.0
20260504035503 6 254 1.6 4.8 0.00 0.00 0.00 75 1015.0
20260504035003 6 309 1.6 4.8 0.00 0.00 0.00 76 1015.0
20260504034502 6 254 1.6 3.2 0.00 0.00 0.00 76 1015.0
20260504034002 6 279 0.0 3.2 0.00 0.00 0.00 76 1014.9
20260504033502 6 254 0.0 3.2 0.00 0.00 0.00 76 1014.9
20260504033003 6 265 1.6 3.2 0.00 0.00 0.00 77 1014.8
20260504032503 6 298 0.0 3.2 0.00 0.00 0.00 77 1014.7
20260504032002 6 265 0.0 3.2 0.00 0.00 0.00 77 1014.8
20260504031501 6 309 1.6 3.2 0.00 0.00 0.00 76 1014.8
20260504031004 6 265 1.6 3.2 0.00 0.00 0.00 76 1014.7
20260504030507 6 292 0.0 3.2 0.00 0.00 0.00 76 1014.7
20260504030003 6 265 0.0 1.6 0.00 0.00 0.00 75 1014.7
20260504025504 6 178 0.0 1.6 0.00 0.00 0.00 75 1014.6
20260504025002 6 93 0.0 1.6 0.00 0.00 0.00 75 1014.6
20260504024503 6 309 0.0 1.6 0.00 0.00 0.00 75 1014.7
20260504024008 6 265 0.0 1.6 0.00 0.00 0.00 74 1014.6
20260504023503 7 51 0.0 1.6 0.00 0.00 0.00 75 1014.7
20260504023003 7 51 0.0 1.6 0.00 0.00 0.00 74 1014.7
20260504022502 7 51 0.0 1.6 0.00 0.00 0.00 74 1014.7
20260504022002 7 9 0.0 1.6 0.00 0.00 0.00 73 1014.7
20260504021503 7 51 0.0 1.6 0.00 0.00 0.00 73 1014.7
20260504021001 7 9 0.0 1.6 0.00 0.00 0.00 73 1014.7
20260504020501 7 51 0.0 3.2 0.00 0.00 0.00 73 1014.8
20260504020002 7 265 0.0 3.2 0.00 0.00 0.00 73 1014.7
20260504015503 8 325 0.0 3.2 0.00 0.00 0.00 72 1014.8
20260504015004 8 51 0.0 1.6 0.00 0.00 0.00 71 1014.7
20260504014505 8 309 0.0 3.2 0.00 0.00 0.00 71 1014.7
20260504014004 8 9 0.0 3.2 0.00 0.00 0.00 70 1014.6
20260504013502 8 9 0.0 1.6 0.00 0.00 0.00 70 1014.6
20260504013004 8 51 0.0 1.6 0.00 0.00 0.00 70 1014.6
20260504012502 9 34 0.0 1.6 0.00 0.00 0.00 69 1014.6
20260504012003 9 93 0.0 3.2 0.00 0.00 0.00 69 1014.5
20260504011510 9 265 0.0 3.2 0.00 0.00 0.00 69 1014.5
20260504011001 10 265 0.0 3.2 0.00 0.00 0.00 68 1014.4
20260504010503 10 309 0.0 3.2 0.00 0.00 0.00 68 1014.4
20260504010003 10 265 0.0 3.2 0.00 0.00 0.00 67 1014.4
20260504005503 10 338 0.0 3.2 0.00 0.00 0.00 67 1014.3
20260504005004 10 265 1.6 3.2 0.00 0.00 0.00 66 1014.2
20260504004503 11 265 1.6 3.2 0.00 0.00 0.00 65 1014.2
20260504004008 11 265 0.0 3.2 0.00 0.00 0.00 64 1014.2
20260504003506 11 265 0.0 3.2 0.00 0.00 0.00 63 1014.2
20260504003006 11 93 0.0 3.2 0.00 0.00 0.00 63 1014.1
20260504002502 12 292 0.0 3.2 0.00 0.00 0.00 63 1014.0
20260504002009 12 265 0.0 3.2 0.00 0.00 0.00 60 1013.9
20260504001504 12 321 0.0 3.2 0.00 0.00 0.00 60 1013.9
20260504001002 12 282 0.0 3.2 0.00 0.00 0.00 59 1013.8
20260504000502 12 282 0.0 3.2 0.00 0.00 0.00 59 1013.8
20260504000004 12 247 0.0 3.2 0.00 0.00 0.00 58 1013.7
20260503235502 13 265 0.0 4.8 0.00 0.00 0.00 57 1013.7
20260503235003 13 137 0.0 6.4 0.00 0.00 0.00 55 1013.6
20260503234505 13 221 0.0 8.0 0.00 0.00 0.00 55 1013.6
20260503234009 13 9 1.6 11.3 0.00 0.00 0.00 56 1013.5
20260503233503 13 120 3.2 11.3 0.00 0.00 0.00 57 1013.4
20260503233003 13 265 1.6 11.3 0.00 0.00 0.00 55 1013.5
20260503232505 13 265 3.2 12.9 0.00 0.00 0.00 56 1013.5
20260503232003 13 217 3.2 12.9 0.00 0.00 0.00 55 1013.5
20260503231503 14 236 3.2 12.9 0.00 0.00 0.00 53 1013.4
20260503231003 14 221 1.6 12.9 0.00 0.00 0.00 53 1013.4
20260503230503 14 296 4.8 12.9 0.00 0.00 0.00 53 1013.4
20260503230008 14 309 4.8 16.1 0.00 0.00 0.00 52 1013.4
20260503225505 15 265 4.8 17.7 0.00 0.00 0.00 52 1013.4
20260503224511 15 292 4.8 12.9 0.00 0.00 0.00 51 1013.3
20260503224005 15 239 3.2 12.9 0.00 0.00 0.00 56 1013.3
20260503223503 15 216 4.8 17.7 0.00 0.00 0.00 51 1013.4
20260503223008 15 129 4.8 17.7 0.00 0.00 0.00 51 1013.4
20260503222503 15 73 4.8 16.1 0.00 0.00 0.00 51 1013.3
20260503222003 15 265 3.2 9.7 0.00 0.00 0.00 53 1013.4
20260503221503 15 9 1.6 9.7 0.00 0.00 0.00 53 1013.3
20260503221003 15 9 4.8 19.3 0.00 0.00 0.00 51 1013.4
20260503220503 15 255 4.8 19.3 0.00 0.00 0.00 50 1013.4
20260503220003 15 131 3.2 16.1 0.00 0.00 0.00 52 1013.4
20260503215502 15 265 3.2 20.9 0.00 0.00 0.00 52 1013.4
20260503215002 16 146 6.4 19.3 0.00 0.00 0.00 49 1013.4
20260503214511 16 309 3.2 16.1 0.00 0.00 0.00 52 1013.4
20260503214007 15 257 6.4 22.5 0.00 0.00 0.00 50 1013.3
20260503213506 16 123 3.2 22.5 0.00 0.00 0.00 51 1013.4
20260503213006 16 292 6.4 19.3 0.00 0.00 0.00 50 1013.5
20260503212504 16 178 1.6 16.1 0.00 0.00 0.00 52 1013.4
20260503212004 16 309 4.8 16.1 0.00 0.00 0.00 51 1013.3
20260503211510 16 202 4.8 19.3 0.00 0.00 0.00 51 1013.4
20260503211006 16 105 3.2 20.9 0.00 0.00 0.00 56 1013.4
20260503210507 15 24 6.4 20.9 0.00 0.00 0.00 50 1013.4
20260503210006 15 137 1.6 25.7 0.00 0.00 0.00 52 1013.5
20260503205503 15 332 11.3 22.5 0.00 0.00 0.00 50 1013.5
20260503205008 15 9 6.4 20.9 0.00 0.00 0.00 51 1013.4
20260503204510 15 296 4.8 22.5 0.00 0.00 0.00 53 1013.4
20260503204008 15 106 6.4 25.7 0.00 0.00 0.00 52 1013.5
20260503203504 15 142 4.8 25.7 0.00 0.00 0.00 53 1013.5
20260503202503 15 286 4.8 22.5 0.00 0.00 0.00 54 1013.6
20260503202007 15 108 3.2 22.5 0.00 0.00 0.00 54 1013.6
20260503201513 15 93 6.4 17.7 0.00 0.00 0.00 56 1013.8
20260503201004 15 22 8.0 20.9 0.00 0.00 0.00 54 1013.7
20260503200504 15 76 8.0 25.7 0.00 0.00 0.00 54 1013.7
20260503200012 15 344 8.0 25.7 0.00 0.00 0.00 55 1013.8
20260503195508 15 19 4.8 29.0 0.00 0.00 0.00 57 1013.9
20260503195004 15 216 4.8 29.0 0.00 0.00 0.00 54 1013.8
20260503194508 15 19 6.4 22.5 0.00 0.00 0.00 56 1013.9
20260503194005 15 41 4.8 20.9 0.00 0.00 0.00 53 1013.9
20260503193505 15 40 9.7 20.9 0.00 0.00 0.00 57 1013.8
20260503193004 15 242 3.2 25.7 0.00 0.00 0.00 59 1014.0
20260503192505 14 144 6.4 25.7 0.00 0.00 0.00 59 1014.1
20260503192007 14 254 4.8 29.0 0.00 0.00 0.00 60 1014.2
20260503191527 13 321 6.4 32.2 0.00 0.00 0.00 57 1014.1
20260503191004 14 32 8.0 32.2 0.00 0.00 0.00 53 1014.3
20260503190508 14 300 6.4 22.5 0.00 0.00 0.00 56 1014.1
20260503190012 13 300 4.8 17.7 0.00 0.00 0.00 64 1014.3
20260503185504 14 196 4.8 17.7 0.00 0.00 0.00 55 1014.3
20260503185005 14 9 6.4 17.7 0.00 0.00 0.00 57 1014.4
20260503184515 14 243 6.4 17.7 0.00 0.00 0.00 67 1014.4
20260503183511 13 80 8.0 27.4 0.00 0.00 0.00 57 1014.4
20260503183004 13 45 8.0 27.4 0.00 0.00 0.00 56 1014.5
20260503182503 13 54 6.4 22.5 0.00 0.00 0.00 58 1014.6
20260503182005 13 164 6.4 27.4 0.00 0.00 0.00 62 1014.5
20260503181506 13 162 4.8 27.4 0.00 0.00 0.00 60 1014.7
20260503181005 13 294 4.8 20.9 0.00 0.00 0.00 58 1014.5
20260503180507 13 81 6.4 20.9 0.00 0.00 0.00 57 1014.6
20260503180010 13 291 9.7 22.5 0.00 0.00 0.00 58 1014.6
20260503175503 13 9 4.8 22.5 0.00 0.00 0.00 57 1014.7
20260503175002 13 265 6.4 22.5 0.00 0.00 0.00 58 1014.9
20260503174505 12 61 4.8 24.1 0.00 0.00 0.00 57 1014.7
20260503174009 13 157 4.8 24.1 0.00 0.00 0.00 64 1014.7
20260503173503 13 9 9.7 22.5 0.00 0.00 0.00 62 1015.0
20260503173002 13 338 6.4 24.1 0.00 0.00 0.00 60 1014.7
20260503172505 12 26 6.4 24.1 0.00 0.00 0.00 61 1014.8
20260503172006 12 16 8.0 20.9 0.00 0.00 0.00 58 1014.9
20260503171503 12 93 4.8 29.0 0.00 0.00 0.00 59 1014.9
20260503171006 12 18 6.4 29.0 0.00 0.00 0.00 66 1014.9
20260503170507 11 242 8.0 27.4 0.00 0.00 0.00 62 1015.0
20260503151002 10 275 6.4 20.9 0.00 0.00 0.00 66 1015.5
20260503150503 9 19 1.6 16.1 0.00 0.00 0.00 71 1015.5
20260503131003 7 135 4.8 20.9 0.00 0.00 0.00 74 1015.3
20260503130506 7 97 6.4 19.3 0.00 0.00 0.00 74 1015.4